[[{"header":{"parameterUnit":"m.s-1","parameterCategory":1,"la1":30.2991,"la2":30.254,"lo1":-89.0895,"lo2":-89.0444,"dy":0.0017,"dx":0.0017,"nx":28,"ny":28,"refTime":"2024-06-10T03:00:00:Z","depth":0,"parameterNumber":2,"parameterNumberName":"U-component_of_WINDS"},"data":[0,0,0,0,0,0,0,0,0,0,0,0,0,0,0,0,0,0,0,0,0,0,0,0,0,0,0,0,0,0,0,0,0,0,0,0,0,0,0,0,0,0,0,0,0,0,0,0,0,0,0,0,0,0,0,0,0,0,-1.5323,-1.5323,0,-1.5315,-1.5314,-1.5314,-1.5215,-1.5213,-1.521,-1.5208,-1.5205,-1.5207,-1.5209,0,0,0,0,0,0,0,0,0,0,0,0,0,-1.5257,-1.5259,-1.5323,-1.5323,-1.5323,-1.5315,-1.5314,-1.5314,-1.5216,-1.5213,-1.521,-1.5207,-1.5204,-1.5207,-1.5209,0,0,0,0,0,0,0,0,0,0,0,0,0,-1.5271,-1.5259,-1.5323,-1.5272,-1.5268,-1.5315,-1.5314,-1.5314,-1.5216,-1.5213,-1.5209,-1.5205,-1.5203,-1.5206,-1.521,-1.5306,0,0,-1.522,-1.5221,0,0,0,0,0,0,0,0,-1.5271,-1.5274,-1.528,-1.5276,-1.5271,-1.5262,-1.529,-1.5312,-1.5217,-1.5236,-1.5208,-1.5204,-1.5227,-1.5228,-1.5235,-1.5306,-1.5306,-1.522,-1.5222,-1.5224,-1.5225,0,0,0,0,0,0,0,-1.527,-1.5274,-1.532,-1.528,-1.5275,-1.5251,-1.5249,-1.5294,-1.5253,-1.5234,-1.5227,-1.5227,-1.5224,-1.5232,-1.5234,-1.5306,-1.522,-1.5223,-1.5225,-1.5227,-1.5454,-1.5458,0,0,0,0,0,0,-1.5275,-1.5273,-1.532,-1.5319,-1.5261,-1.5256,-1.5253,-1.5269,-1.5252,-1.5246,-1.523,-1.5223,-1.5228,-1.5231,-1.5234,-1.5345,-1.5224,-1.5227,-1.5229,-1.545,-1.5455,-1.5459,0,0,0,0,0,0,-1.5274,-1.528,-1.532,-1.5294,-1.5298,-1.5261,-1.5279,-1.5271,-1.5278,-1.5249,-1.5242,-1.5246,-1.5225,-1.5229,-1.5288,-1.5343,-1.5228,-1.5232,-1.5445,-1.5452,-1.5457,-1.5568,0,0,0,0,0,0,-1.5273,-1.528,-1.5316,-1.5296,-1.5299,-1.5374,-1.5282,-1.5273,-1.5284,-1.5274,-1.5262,-1.5256,-1.5223,-1.5284,-1.5292,-1.5346,-1.5234,-1.544,-1.5448,-1.5455,-1.5559,-1.5577,-1.5592,0,0,0,0,0,-1.5271,-1.5348,-1.5318,-1.5324,-1.5342,-1.5377,-1.5379,-1.5338,-1.5289,-1.5325,-1.5306,-1.5257,-1.5336,-1.5291,-1.5299,-1.5355,-1.5437,-1.5446,-1.5455,-1.5552,-1.5574,-1.5592,0,0,0,0,0,0,-1.5378,-1.5345,-1.5311,-1.5384,-1.5384,-1.536,-1.5404,-1.5362,-1.5377,-1.5367,-1.5316,-1.5314,-1.5381,-1.5374,-1.5324,-1.5447,-1.5378,-1.5389,-1.5449,-1.5469,-1.5486,-1.5486,-1.5237,0,0,0,0,0,-1.5409,-1.5439,-1.5409,-1.5477,-1.5478,-1.5442,-1.5455,-1.5423,-1.5421,-1.5421,-1.5406,-1.5408,-1.5433,-1.5451,-1.5472,-1.5558,-1.5554,-1.56,-1.5617,-1.5631,-1.5641,-1.5685,-1.5705,-1.5489,-1.5489,-1.5489,0,0,-1.5476,-1.5462,-1.5484,-1.5498,-1.5494,-1.5527,-1.5442,-1.5481,-1.5505,-1.5427,-1.5481,-1.5471,-1.547,-1.5542,-1.5573,-1.5538,-1.57,-1.5642,-1.5653,-1.5656,-1.5696,-1.5717,-1.5735,-1.5495,-1.5494,-1.5493,0,0,-1.5614,-1.5606,-1.5661,-1.5659,-1.5653,-1.5628,-1.5641,-1.5624,-1.5613,-1.5666,-1.5609,-1.5638,-1.5682,-1.5683,-1.5689,-1.5827,-1.5783,-1.5836,-1.5922,-1.5966,-1.5983,-1.5998,-1.6047,-1.6065,-1.5846,-1.5846,-1.5847,0,-1.5698,-1.5743,-1.5696,-1.5737,-1.5745,-1.5675,-1.5731,-1.5731,-1.5734,-1.5742,-1.5702,-1.5755,-1.575,-1.5821,-1.5854,-1.5862,-1.5876,-1.5837,-1.5984,-1.5998,-1.6012,-1.6058,-1.6076,-1.5853,-1.5852,-1.5851,-1.5851,0,-1.5847,-1.5879,-1.5925,-1.5927,-1.594,-1.5989,-1.595,-1.5969,-1.5936,-1.5915,-1.5971,-1.5961,-1.5979,-1.5994,-1.5962,-1.6061,-1.6039,-1.5993,-1.5922,-1.604,-1.6082,-1.6099,-1.5862,-1.586,-1.5858,-1.5856,0,0,-1.6052,-1.6026,-1.6044,-1.6043,-1.6032,-1.6057,-1.6103,-1.6118,-1.6136,-1.6141,-1.6178,-1.6217,-1.6173,-1.6181,-1.6149,-1.6188,-1.6297,-1.6136,-1.6135,-1.6166,-1.6404,-1.6439,-1.646,-1.6267,-1.627,-1.6273,-1.6404,0,-1.6185,-1.626,-1.6218,-1.63,-1.6329,-1.6263,-1.6303,-1.6301,-1.6283,-1.6306,-1.6287,-1.6315,-1.6256,-1.6259,-1.6295,-1.6276,-1.6344,-1.6266,-1.6302,-1.6304,-1.6304,-1.6482,-1.6519,-1.6643,-1.6421,-1.6423,-1.6425,0,-1.6349,-1.6358,-1.6443,-1.6424,-1.6435,-1.6472,-1.6482,-1.6505,-1.6502,-1.6486,-1.6494,-1.6453,-1.6498,-1.6428,-1.649,-1.6438,-1.645,-1.6444,-1.6447,-1.6449,-1.6372,-1.6488,-1.6682,-1.6701,-1.6451,-1.6449,-1.6447,0,-1.649,-1.6524,-1.6578,-1.658,-1.656,-1.6588,-1.6581,-1.6573,-1.6586,-1.6596,-1.6603,-1.6619,-1.6628,-1.6642,-1.6607,-1.6559,-1.6673,-1.66,-1.6662,-1.6663,-1.6688,-1.6687,-1.6886,-1.6698,-1.6697,-1.6697,-1.6697,0,-1.6642,-1.6696,-1.664,-1.6674,-1.6733,-1.6685,-1.6745,-1.6731,-1.6725,-1.6755,-1.67,-1.673,-1.6681,-1.6707,-1.668,-1.6735,-1.674,-1.6729,-1.6721,-1.6733,-1.6735,-1.674,-1.6731,-1.6702,-1.6701,-1.67,-1.6699,0,-1.6809,-1.6774,-1.6829,-1.6805,-1.68,-1.6845,-1.6825,-1.6856,-1.6834,-1.6873,-1.688,-1.6846,-1.6873,-1.6839,-1.6864,-1.6845,-1.6919,-1.6899,-1.692,-1.6914,-1.6977,-1.6971,-1.7186,-1.7212,-1.7008,-1.701,-1.7011,0,-1.6908,-1.6948,-1.6928,-1.6943,-1.6939,-1.6965,-1.6977,-1.6931,-1.6946,-1.6944,-1.6975,-1.6997,-1.7012,-1.7059,-1.7038,-1.7056,-1.7036,-1.711,-1.7038,-1.7049,-1.7036,-1.7034,-1.7037,-1.7124,-1.7127,-1.7129,-1.7131,0,-1.7087,-1.7068,-1.7085,-1.7097,-1.7112,-1.7119,-1.7123,-1.7139,-1.7091,-1.7111,-1.7137,-1.7148,-1.7172,-1.7195,-1.7208,-1.7202,-1.7159,-1.7153,-1.7168,-1.7181,-1.7191,-1.7186,-1.6959,-1.7148,-1.7147,-1.7145,-1.7144,-1.7144,-1.7223,-1.7254,-1.7245,-1.7266,-1.7264,-1.7268,-1.7295,-1.7276,-1.7296,-1.7311,-1.7284,-1.7317,-1.7312,-1.7324,-1.7324,-1.7349,-1.7318,-1.734,-1.7345,-1.7351,-1.736,-1.7188,-1.7352,-1.7351,-1.7351,-1.735,-1.735,0,-1.7398,-1.7388,-1.7409,-1.7414,-1.7431,-1.7387,-1.7389,-1.7406,-1.7436,-1.7434,-1.745,-1.748,-1.7501,-1.7481,-1.7499,-1.7524,-1.7504,-1.753,-1.7527,-1.7527,-1.7388,-1.7373,-1.7545,-1.7545,-1.7545,-1.7545,-1.7545,-1.7545,-1.7491,-1.7542,-1.7522,-1.7571,-1.7561,-1.7592,-1.7597,-1.7601,-1.7599,-1.7634,-1.7651,-1.7637,-1.7629,-1.7645,-1.7663,-1.7657,-1.7666,-1.7699,-1.7685,-1.7556,-1.7537,-1.7518,-1.7504,-1.7701,-1.7701,-1.7822,-1.7823,-1.7824]},{"header":{"parameterUnit":"m.s-1","parameterCategory":1,"la1":30.2991,"la2":30.254,"lo1":-89.0895,"lo2":-89.0444,"dy":0.0017,"dx":0.0017,"nx":28,"ny":28,"refTime":"2024-06-10T03:00:00:Z","depth":0,"parameterNumber":3,"parameterNumberName":"V-component_of_WINDS"},"data":[0,0,0,0,0,0,0,0,0,0,0,0,0,0,0,0,0,0,0,0,0,0,0,0,0,0,0,0,0,0,0,0,0,0,0,0,0,0,0,0,0,0,0,0,0,0,0,0,0,0,0,0,0,0,0,0,0,0,-3.0969,-3.0969,0,-3.0997,-3.0997,-3.0997,-3.0956,-3.0954,-3.0953,-3.0951,-3.0978,-3.098,-3.0982,0,0,0,0,0,0,0,0,0,0,0,0,0,-3.0878,-3.088,-3.0969,-3.0969,-3.097,-3.0997,-3.0997,-3.0997,-3.0956,-3.0954,-3.0952,-3.0951,-3.0977,-3.098,-3.0982,0,0,0,0,0,0,0,0,0,0,0,0,0,-3.0913,-3.088,-3.0969,-3.0952,-3.0951,-3.0997,-3.0997,-3.0997,-3.0956,-3.0954,-3.0952,-3.095,-3.0976,-3.0979,-3.0982,-3.1045,0,0,-3.0992,-3.0993,0,0,0,0,0,0,0,0,-3.0911,-3.0916,-3.0954,-3.0953,-3.0952,-3.0971,-3.0974,-3.1013,-3.0957,-3.0954,-3.0951,-3.0949,-3.0977,-3.098,-3.099,-3.1046,-3.1047,-3.0992,-3.0994,-3.0995,-3.0996,0,0,0,0,0,0,0,-3.0908,-3.0915,-3.098,-3.0955,-3.0954,-3.0943,-3.0945,-3.0982,-3.0977,-3.0954,-3.0951,-3.0955,-3.0976,-3.0987,-3.099,-3.1047,-3.0992,-3.0995,-3.0997,-3.0998,-3.1155,-3.1157,0,0,0,0,0,0,-3.0908,-3.0913,-3.0979,-3.0981,-3.0926,-3.0946,-3.0949,-3.0967,-3.0977,-3.0976,-3.0957,-3.0953,-3.0983,-3.0987,-3.0991,-3.1063,-3.0995,-3.0998,-3.1,-3.1153,-3.1155,-3.1158,0,0,0,0,0,0,-3.0906,-3.0915,-3.0978,-3.0946,-3.0953,-3.095,-3.097,-3.0968,-3.0979,-3.0979,-3.0978,-3.0969,-3.0981,-3.0986,-3.1031,-3.1064,-3.0999,-3.1002,-3.115,-3.1153,-3.1157,-3.121,0,0,0,0,0,0,-3.0904,-3.0914,-3.0938,-3.0947,-3.0955,-3.1019,-3.0972,-3.0971,-3.0985,-3.098,-3.099,-3.099,-3.098,-3.1027,-3.1035,-3.1067,-3.1005,-3.1147,-3.1151,-3.1156,-3.1205,-3.1215,-3.1223,0,0,0,0,0,-3.0901,-3.0952,-3.094,-3.0948,-3.0985,-3.1021,-3.1025,-3.1014,-3.0988,-3.1012,-3.1011,-3.0989,-3.1059,-3.1032,-3.104,-3.1074,-3.1145,-3.115,-3.1155,-3.1201,-3.1213,-3.1223,0,0,0,0,0,0,-3.0947,-3.0953,-3.0939,-3.0995,-3.1008,-3.1014,-3.1043,-3.1027,-3.1046,-3.1041,-3.1025,-3.1028,-3.1076,-3.1079,-3.1049,-3.1134,-3.1098,-3.1105,-3.113,-3.1141,-3.115,-3.1147,-3.1007,0,0,0,0,0,-3.0963,-3.0992,-3.0996,-3.1045,-3.1052,-3.1047,-3.1062,-3.1052,-3.1064,-3.1069,-3.1072,-3.1084,-3.1109,-3.1125,-3.1148,-3.1206,-3.1207,-3.1233,-3.1242,-3.1249,-3.1255,-3.1285,-3.1296,-3.1175,-3.1175,-3.1175,0,0,-3.0998,-3.1005,-3.1024,-3.1054,-3.1063,-3.1092,-3.1051,-3.1084,-3.1106,-3.1074,-3.1116,-3.1119,-3.1131,-3.1183,-3.1206,-3.1187,-3.1289,-3.1256,-3.1262,-3.1264,-3.1291,-3.1303,-3.1313,-3.1179,-3.1178,-3.1177,0,0,-3.1075,-3.1084,-3.1125,-3.1135,-3.1149,-3.1145,-3.1155,-3.1164,-3.1164,-3.1207,-3.1183,-3.1208,-3.1251,-3.1261,-3.1272,-3.1353,-3.1333,-3.1361,-3.1407,-3.1436,-3.1445,-3.1454,-3.1481,-3.1492,-3.1367,-3.1367,-3.1367,0,-3.1116,-3.116,-3.1148,-3.1183,-3.1196,-3.1169,-3.121,-3.122,-3.124,-3.125,-3.1229,-3.1282,-3.1289,-3.1342,-3.1362,-3.1372,-3.1381,-3.1359,-3.1445,-3.1453,-3.1461,-3.1487,-3.1498,-3.137,-3.137,-3.137,-3.1369,0,-3.1209,-3.124,-3.1271,-3.1292,-3.1309,-3.1347,-3.1339,-3.1358,-3.1347,-3.1345,-3.1388,-3.1395,-3.1419,-3.1431,-3.142,-3.1482,-3.147,-3.1448,-3.141,-3.1476,-3.15,-3.151,-3.1375,-3.1374,-3.1373,-3.1372,0,0,-3.1315,-3.1329,-3.1341,-3.1349,-3.1363,-3.1386,-3.1422,-3.1446,-3.1461,-3.1477,-3.1505,-3.1543,-3.1522,-3.1534,-3.1524,-3.155,-3.1612,-3.1524,-3.1524,-3.1539,-3.168,-3.1695,-3.1707,-3.16,-3.1602,-3.1603,-3.1678,0,-3.1391,-3.1454,-3.1444,-3.1504,-3.1532,-3.1507,-3.1538,-3.155,-3.1549,-3.1572,-3.1571,-3.1597,-3.1569,-3.1576,-3.16,-3.16,-3.164,-3.1594,-3.1625,-3.1627,-3.1622,-3.172,-3.1737,-3.1807,-3.1688,-3.1689,-3.1691,0,-3.1488,-3.1507,-3.157,-3.1579,-3.159,-3.1619,-3.1639,-3.1662,-3.1674,-3.1671,-3.1685,-3.167,-3.1705,-3.1669,-3.1716,-3.1685,-3.1697,-3.1699,-3.1701,-3.1702,-3.1661,-3.1722,-3.1829,-3.1839,-3.1706,-3.1704,-3.1703,0,-3.1557,-3.1599,-3.1642,-3.165,-3.1662,-3.1682,-3.1688,-3.1698,-3.1712,-3.173,-3.1739,-3.1761,-3.1772,-3.1789,-3.178,-3.1754,-3.1828,-3.1791,-3.1826,-3.1826,-3.1842,-3.184,-3.195,-3.1852,-3.1852,-3.1852,-3.1852,0,-3.1642,-3.1682,-3.1673,-3.1699,-3.1742,-3.1731,-3.1773,-3.1776,-3.1785,-3.181,-3.1791,-3.1815,-3.1802,-3.1826,-3.1819,-3.1858,-3.1864,-3.1862,-3.186,-3.1863,-3.1863,-3.187,-3.1864,-3.1855,-3.1854,-3.1854,-3.1853,0,-3.1726,-3.1722,-3.1767,-3.1775,-3.1778,-3.1809,-3.1815,-3.1839,-3.1837,-3.187,-3.1877,-3.1874,-3.19,-3.1893,-3.1922,-3.1917,-3.1966,-3.1958,-3.1962,-3.196,-3.1995,-3.1991,-3.2111,-3.2126,-3.202,-3.2021,-3.2022,0,-3.178,-3.181,-3.1821,-3.1837,-3.1844,-3.187,-3.1885,-3.1875,-3.1891,-3.1907,-3.1929,-3.1953,-3.1972,-3.2015,-3.2015,-3.2036,-3.2028,-3.2069,-3.2031,-3.2033,-3.2027,-3.2024,-3.2027,-3.2076,-3.2077,-3.2078,-3.2079,0,-3.1876,-3.1872,-3.1895,-3.1917,-3.1935,-3.1951,-3.1966,-3.198,-3.1971,-3.199,-3.2017,-3.2032,-3.2061,-3.2085,-3.2105,-3.211,-3.2092,-3.2091,-3.21,-3.2103,-3.2103,-3.2102,-3.1981,-3.2088,-3.2087,-3.2086,-3.2086,-3.2085,-3.1945,-3.197,-3.1981,-3.2007,-3.2017,-3.2031,-3.2054,-3.2055,-3.2077,-3.2101,-3.2093,-3.2124,-3.2134,-3.2159,-3.2167,-3.219,-3.2174,-3.2188,-3.2191,-3.2194,-3.2197,-3.2101,-3.2194,-3.2193,-3.2193,-3.2193,-3.2193,0,-3.2038,-3.2044,-3.2068,-3.2089,-3.2109,-3.2092,-3.2108,-3.2125,-3.2152,-3.2164,-3.2183,-3.2214,-3.2237,-3.2239,-3.2261,-3.2279,-3.2272,-3.2285,-3.2283,-3.2284,-3.2211,-3.22,-3.2291,-3.2291,-3.2291,-3.2291,-3.2291,-3.2291,-3.2088,-3.2129,-3.2127,-3.2173,-3.2178,-3.2208,-3.2218,-3.2231,-3.224,-3.2275,-3.2295,-3.2297,-3.2304,-3.2326,-3.2347,-3.2347,-3.2355,-3.2371,-3.2368,-3.2299,-3.2289,-3.228,-3.227,-3.2374,-3.2374,-3.2439,-3.244,-3.244]}]]